This demonstration page uses our WeatherBlox Daily Observations layout. Learn more.

Left ArrowRight Arrow

31.84235, -102.49876

Hourly Observations for June 1, 2022

Temp ( °F °C ) Dew Point ( °F °C ) Humidity (%) Winds ( mph kmh ) Pressure ( in mb ) Visibility ( mi km ) Precip ( " mm )
12:53 am 00:53 Clear 81 27.2 61 16.1 51 51 S 12 19 29.68 1005 10 16 0.00 0.00
1:53 am 01:53 Clear 81 27.2 59 15 47 47 SSE 14 22 29.69 1005 10 16 0.00 0.00
2:53 am 02:53 Clear 80 26.7 59 15 49 49 SSE 14 22 29.69 1005 10 16 0.00 0.00
3:53 am 03:53 Clear 78 25.6 63 17.2 60 60 SSE 17 28 29.72 1006 10 16 0.00 0.00
4:53 am 04:53 Mostly Cloudy 77 25 66 18.9 69 69 SSE 17 28 29.74 1007 10 16 0.00 0.00
5:08 am 05:08 Cloudy 77 25 66 18.9 69 69 S 14 22 29.74 1007 10 16 0.00 0.00
5:22 am 05:22 Cloudy 77 25 66 18.9 69 69 S 22 35 29.75 1007 10 16 0.00 0.00
5:53 am 05:53 Cloudy 76 24.4 66 18.9 72 72 S 17 28 29.77 1008 10 16 0.00 0.00
6:53 am 06:53 Mostly Cloudy 76 24.4 66 18.9 72 72 SSE 15 24 29.78 1009 10 16 0.00 0.00
7:00 am 07:00 Cloudy 76 24.4 66 18.9 72 72 SSE 15 24 29.78 1009 10 16 0.00 0.00
7:40 am 07:40 Cloudy 76 24.4 65 18.3 69 69 SSE 22 35 29.78 1009 10 16 0.00 0.00
7:53 am 07:53 Mostly Cloudy 76 24.4 65 18.3 69 69 SSE 23 37 29.78 1009 10 16 0.00 0.00
8:19 am 08:19 Mostly Cloudy 76 24.4 65 18.3 69 69 SSE 23 37 29.78 1009 10 16 0.00 0.00
8:53 am 08:53 Partly Cloudy 77 25 64 17.8 64 64 SSE 26 43 29.80 1009 10 16 0.00 0.00
9:40 am 09:40 Mostly Cloudy 79 26.1 64 17.8 60 60 S 23 37 29.78 1008 10 16 0.00 0.00
9:53 am 09:53 Mostly Cloudy 79 26.1 64 17.8 60 60 S 22 35 29.81 1010 10 16 0.00 0.00
10:53 am 10:53 Mostly Cloudy 82 27.8 65 18.3 56 56 S 20 31 29.80 1009 10 16 0.00 0.00
11:53 am 11:53 Sunny 85 29.4 65 18.3 51 51 S 18 30 29.79 1009 10 16 0.00 0.00
12:53 pm 12:53 Sunny 87 30.6 64 17.8 46 46 S 16 26 29.79 1009 10 16 0.00 0.00
1:53 pm 13:53 Sunny 89 31.7 63 17.2 42 42 ESE 10 17 29.78 1008 10 16 0.00 0.00
2:53 pm 14:53 Mostly Sunny 91 32.8 63 17.2 39 39 VRB 6 9 29.76 1008 10 16 0.00 0.00
3:53 pm 15:53 Mostly Sunny 93 33.9 61 16.1 34 34 SE 15 24 29.75 1007 10 16 0.00 0.00
4:53 pm 16:53 Partly Cloudy 94 34.4 61 16.1 33 33 SE 20 31 29.70 1006 10 16 0.00 0.00
5:53 pm 17:53 Mostly Sunny 89 31.7 58 14.4 35 35 SE 22 35 29.67 1005 10 16 0.00 0.00
6:14 pm 18:14 Partly Cloudy with Nearby Thunderstorms 88 31.1 59 15 38 38 SE 25 41 29.61 1003 10 16 0.00 0.00
6:27 pm 18:27 Partly Cloudy with Thunderstorms 88 31.1 60 15.6 39 39 SE 21 33 29.64 1004 10 16 0.00 0.00
6:53 pm 18:53 Mostly Cloudy with Thunderstorms 84 28.9 64 17.8 51 51 S 15 24 29.78 1008 8 13 0.01 0.25
7:40 pm 19:40 Windy with Storms Likely 70 21.1 66 18.9 87 87 WNW 21 33 29.89 1012 10 16 0.08 2.03
7:47 pm 19:47 Mostly Cloudy with Nearby Thunderstorms 70 21 64 18 83 83 N 22 35 29.91 1013 8 13 0.09 2.29
7:53 pm 19:53 Cloudy with Nearby Thunderstorms 68 20 63 17.2 84 84 N 26 43 29.92 1013 7 11 0.10 2.54
7:59 pm 19:59 Windy with Storms Likely 68 20 62 16.7 81 81 N 26 43 29.96 1015 9 14 0.00 0.00
8:15 pm 20:15 Cloudy with Strong Thunderstorms 65 18.3 60 15.6 84 84 NNW 17 28 30.00 1016 3 4 0.07 1.78
8:23 pm 20:23 Cloudy with Strong Thunderstorms 64 17.8 61 16.1 90 90 N 20 31 29.99 1016 2 3 0.17 4.32
8:30 pm 20:30 Cloudy with Thunderstorms 64 17.8 60 15.6 87 87 NNE 17 28 29.99 1016 3 5 0.18 4.57
8:53 pm 20:53 Cloudy with Strong Thunderstorms 64 17.8 60 15.6 87 87 N 14 22 30.03 1017 4 6 0.25 6.35
9:32 pm 21:32 Cloudy with Nearby Thunderstorms 65 18.3 59 15 81 81 E 16 26 30.00 1016 4 6 0.11 2.79
9:41 pm 21:41 Cloudy with Nearby Thunderstorms 65 18.3 60 15.6 84 84 E 29 46 29.92 1013 4 6 0.15 3.81
9:53 pm 21:53 Cloudy with Nearby Thunderstorms 66 18.9 59 15 78 78 E 26 43 29.89 1012 6 10 0.17 4.32
10:03 pm 22:03 Mostly Cloudy with Light Rain 67 19.4 58 14.4 73 73 ESE 22 35 29.92 1013 10 16 0.00 0.00
10:53 pm 22:53 Clear 67 19.4 59 15 76 76 E 17 28 29.86 1011 10 16 0.00 0.00
11:53 pm 23:53 Clear 68 20 57 13.9 68 68 E 9 15 29.86 1011 10 16 0.00 0.00

Powered by AerisWeather